Fairfield, IL

10:37 AM CST on December 08, 2019 (GMT -0600)
Fairfield Municipal

Weather History for KFWC - October, 2019

Change the Weather History Date:

Tuesday, October 8, 2019

  Actual Average (KEVV) Record (KEVV)
Temperature  
Mean Temperature 58 °F -  
Max Temperature 73 °F 72 °F 92 °F (2007)
Min Temperature 42 °F 46 °F 28 °F (1987)
Degree Days  
Heating Degree Days 8    
Growing Degree Days 8 (Base 50)    
Moisture  
Dew Point 45 °F    
Average Humidity 73    
Maximum Humidity 100    
Minimum Humidity 31    
Precipitation  
Precipitation 0.00 in - - ()
Sea Level Pressure  
Sea Level Pressure 30.17 in    
Wind  
Wind Speed 0 mph ()    
Max Wind Speed 6 mph    
Max Gust Speed -    
Visibility 10.0 miles    
Events      
Averages and records for this station are not official NWS values.
T = Trace of Precipitation, MM = Missing Value Source: Averaged Metar Reports

Daily Weather History Graph

Daily Weather History Graph

Search for Another Location

Airport or City:

Astronomy

Oct. 08, 2019 Rise Set
Actual Time 6:55 AM CDT 6:26 PM CDT
Civil Twilight 6:29 AM CDT 6:52 PM CDT
Nautical Twilight 5:58 AM CDT 7:23 PM CDT
Astronomical Twilight 5:27 AM CDT 7:53 PM CDT
Moon 4:20 PM CDT 1:50 AM CDT
Length of Visible Light 12h 23m
Length of Day
11h 30m
Waxing Gibbous, 78% of the Moon is Illuminated
Oct 8
Waxing Gibbous
Oct 13
Full
Oct 21
Last Quarter
Oct 27
New
Nov 4
First Quarter

Hourly Weather History & Observations

Time (CDT) Temp. Dew Point Humidity Pressure Visibility Wind Dir Wind Speed Gust Speed Precip Events Conditions
12:15 AM 45.5 °F 45.5 °F 100% 30.20 in 10.0 mi Calm Calm - N/A   Clear
12:35 AM 45.7 °F 45.7 °F 100% 30.20 in 10.0 mi Calm Calm - N/A   Clear
12:55 AM 44.8 °F 44.8 °F 100% 30.20 in 10.0 mi Calm Calm - N/A   Clear
1:15 AM 45.3 °F 45.3 °F 100% 30.20 in 10.0 mi Calm Calm - N/A   Clear
1:35 AM 44.6 °F 44.6 °F 100% 30.20 in 10.0 mi Calm Calm - N/A   Clear
1:55 AM 45.1 °F 45.1 °F 100% 30.20 in 10.0 mi Calm Calm - N/A   Clear
2:15 AM 44.6 °F 44.6 °F 100% 30.19 in 10.0 mi Calm Calm - N/A   Clear
2:35 AM 43.7 °F 43.7 °F 100% 30.19 in 10.0 mi Calm Calm - N/A   Clear
2:55 AM 44.4 °F 44.4 °F 100% 30.19 in 10.0 mi Calm Calm - N/A   Clear
3:15 AM 46.6 °F 45.3 °F 95% 30.19 in 10.0 mi Calm Calm - N/A   Clear
3:35 AM 46.8 °F 45.3 °F 95% 30.19 in 10.0 mi Calm Calm - N/A   Clear
3:55 AM 46.9 °F 46.4 °F 98% 30.19 in 10.0 mi Calm Calm - N/A   Clear
4:15 AM 46.9 °F 45.5 °F 95% 30.19 in 10.0 mi Calm Calm - N/A   Clear
4:35 AM 43.7 °F 43.7 °F 100% 30.19 in 10.0 mi Calm Calm - N/A   Clear
4:55 AM 43.3 °F 43.3 °F 100% 30.19 in 10.0 mi Calm Calm - N/A   Clear
5:15 AM 42.6 °F 42.6 °F 100% 30.20 in 10.0 mi Calm Calm - N/A   Clear
5:35 AM 44.4 °F 44.4 °F 100% 30.20 in 10.0 mi Calm Calm - N/A   Clear
5:55 AM 44.8 °F 44.6 °F 99% 30.21 in 10.0 mi Calm Calm - N/A   Clear
6:15 AM 44.6 °F 44.6 °F 100% 30.21 in 10.0 mi Calm Calm - N/A   Clear
6:35 AM 44.4 °F 44.4 °F 100% 30.21 in 10.0 mi Calm Calm - N/A   Clear
6:55 AM 43.7 °F 43.7 °F 100% 30.21 in 10.0 mi Calm Calm - N/A   Clear
7:15 AM 43.7 °F 43.7 °F 100% 30.21 in 10.0 mi Calm Calm - N/A   Clear
7:35 AM 46.0 °F 46.0 °F 100% 30.21 in 10.0 mi Calm Calm - N/A   Clear
7:55 AM 48.9 °F 47.8 °F 96% 30.22 in 10.0 mi Calm Calm - N/A   Clear
8:15 AM 51.3 °F 47.5 °F 87% 30.22 in 10.0 mi Calm Calm - N/A   Clear
8:35 AM 53.6 °F 48.4 °F 82% 30.22 in 10.0 mi Calm Calm - N/A   Clear
8:55 AM 56.5 °F 50.4 °F 80% 30.22 in 10.0 mi Calm Calm - N/A   Clear
9:15 AM 59.4 °F 51.4 °F 75% 30.23 in 10.0 mi Calm Calm - N/A   Clear
9:35 AM 62.2 °F 50.5 °F 65% 30.23 in 10.0 mi Calm Calm - N/A   Clear
9:55 AM 64.9 °F 48.6 °F 55% 30.23 in 10.0 mi Calm Calm - N/A   Clear
10:15 AM 67.1 °F 44.4 °F 44% 30.23 in 10.0 mi Calm Calm - N/A   Clear
10:35 AM 68.4 °F 44.6 °F 42% 30.23 in 10.0 mi Calm Calm - N/A   Clear
10:55 AM 69.1 °F 43.3 °F 39% 30.22 in 10.0 mi Calm Calm - N/A   Clear
11:15 AM 69.8 °F 41.9 °F 36% 30.22 in 10.0 mi East 4.6 mph - N/A   Clear
11:35 AM 69.6 °F 43.3 °F 39% 30.22 in 10.0 mi East 4.6 mph - N/A   Clear
11:55 AM 70.3 °F 44.4 °F 39% 30.20 in 10.0 mi Calm Calm - N/A   Clear
12:15 PM 71.2 °F 41.0 °F 33% 30.20 in 10.0 mi East 4.6 mph - N/A   Clear
12:35 PM 71.8 °F 41.2 °F 33% 30.19 in 10.0 mi East 4.6 mph - N/A   Clear
12:55 PM 71.4 °F 39.6 °F 31% 30.18 in 10.0 mi ENE 4.6 mph - N/A   Clear
1:15 PM 72.1 °F 40.3 °F 32% 30.17 in 10.0 mi East 5.8 mph - N/A   Clear
1:35 PM 72.1 °F 40.6 °F 32% 30.16 in 10.0 mi NE 3.5 mph - N/A   Clear
1:55 PM 72.9 °F 41.2 °F 32% 30.14 in 10.0 mi Calm Calm - N/A   Clear
2:15 PM 72.5 °F 41.2 °F 32% 30.14 in 10.0 mi Calm Calm - N/A   Clear
2:35 PM 72.7 °F 41.2 °F 32% 30.14 in 10.0 mi Calm Calm - N/A   Clear
2:55 PM 72.9 °F 40.6 °F 31% 30.13 in 10.0 mi North 3.5 mph - N/A   Clear
3:15 PM 73.4 °F 40.8 °F 31% 30.13 in 10.0 mi East 4.6 mph - N/A   Clear
3:35 PM 72.5 °F 40.1 °F 31% 30.12 in 10.0 mi Calm Calm - N/A   Clear
3:55 PM 72.9 °F 40.3 °F 31% 30.12 in 10.0 mi ENE 3.5 mph - N/A   Clear
4:15 PM 72.7 °F 39.9 °F 31% 30.12 in 10.0 mi Calm Calm - N/A   Clear
4:35 PM 72.5 °F 40.5 °F 31% 30.12 in 10.0 mi ENE 3.5 mph - N/A   Clear
4:55 PM 72.0 °F 40.5 °F 32% 30.11 in 10.0 mi Calm Calm - N/A   Clear
5:15 PM 71.6 °F 41.9 °F 34% 30.11 in 10.0 mi Calm Calm - N/A   Clear
5:35 PM 70.7 °F 42.3 °F 36% 30.11 in 10.0 mi Calm Calm - N/A   Clear
6:15 PM 60.3 °F 47.3 °F 62% 30.11 in 10.0 mi Calm Calm - N/A   Clear
6:35 PM 58.3 °F 48.0 °F 69% 30.11 in 10.0 mi Calm Calm - N/A   Clear
6:55 PM 57.6 °F 48.0 °F 70% 30.11 in 10.0 mi Calm Calm - N/A   Clear
7:15 PM 54.3 °F 49.1 °F 83% 30.12 in 10.0 mi Calm Calm - N/A   Clear
7:35 PM 53.4 °F 48.7 °F 84% 30.12 in 10.0 mi Calm Calm - N/A   Clear
7:55 PM 52.2 °F 48.6 °F 88% 30.12 in 10.0 mi Calm Calm - N/A   Clear
8:15 PM 51.1 °F 48.4 °F 90% 30.12 in 10.0 mi Calm Calm - N/A   Clear
8:35 PM 50.7 °F 48.2 °F 91% 30.12 in 10.0 mi Calm Calm - N/A   Clear
8:55 PM 50.4 °F 48.4 °F 93% 30.12 in 10.0 mi Calm Calm - N/A   Clear
9:15 PM 54.0 °F 45.1 °F 72% 30.12 in 10.0 mi Calm Calm - N/A   Clear
9:35 PM 50.0 °F 47.5 °F 91% 30.12 in 10.0 mi Calm Calm - N/A   Clear
9:55 PM 48.9 °F 47.5 °F 95% 30.12 in 10.0 mi Calm Calm - N/A   Clear
10:15 PM 48.2 °F 47.3 °F 97% 30.12 in 10.0 mi Calm Calm - N/A   Clear
10:35 PM 49.5 °F 47.3 °F 92% 30.12 in 10.0 mi Calm Calm - N/A   Clear
10:55 PM 48.0 °F 47.3 °F 97% 30.12 in 10.0 mi Calm Calm - N/A   Clear
11:15 PM 46.6 °F 46.0 °F 98% 30.11 in 10.0 mi Calm Calm - N/A   Clear
11:35 PM 47.8 °F 45.9 °F 93% 30.11 in 10.0 mi Calm Calm - N/A   Clear
11:55 PM 48.7 °F 45.0 °F 87% 30.11 in 10.0 mi Calm Calm - N/A   Clear